Погода в Гостинове

Россия / Орловская область     52°45′23″N   36°19′57″E
темп.,
°C
ветер,
м/с
пор.,
м/с
влажн.,
%
обл.,
%
осадки,
мм/ч
давл.,
гПа
погр.,
м
20 сентября, пн
пн2000:00+10вюв4898100 0.1 1008316
03:00+9в359994 0.1 1008152
06:00+10в4799100 0.0 1006212
09:00+11вюв51098100 1.4 1006439
12:00+13ююв589183 0.8 1006658
15:00+11ююз6778100 1.2 1008751
18:00+10ю3881100 0.0 1009502
21:00+9юв3784100 0.0 1009303
21 сентября, вт
вт2100:00+9юв4992100 1.1 1009523
03:00+9ююз5793100 1.5 1009533
06:00+8ююз5894100 0.1 1010646
09:00+8юз5789100 0.1 1011604
12:00+9ююз5581100 0.1 1011767
15:00+8юз458198 0.1 1011796
18:00+7юз3486100 0.1 1012826
21:00+7юз2385100 0.1 1012397
22 сентября, ср
ср2200:00+6юз2288100 0.0 1012379
03:00+6ююз1287100 0.1 1011398
06:00+6ююв1288100 0.1 1011417
09:00+6юв1288100 0.1 1011511
12:00+7юв118391 0.1 1012501
15:00+9юв117599 0.2 1012598
18:00+8ююз228399 0.1 1012148
21:00+7юз128796 0.2 101382
23 сентября, чт
чт2300:00+7ююз229095 0.0 1013114
03:00+7ю2391100 0.1 1013179
06:00+7ю249098 0.0 1014255
09:00+8ю3480100 0.1 1014427
12:00+10ююв4469100 0.3 10141107
15:00+9ююв5575100 0.7 1014854
18:00+7ююв4582100 0.1 1015458
21:00+7ю3486100 0.3 1015739
24 сентября, пт
пт2400:00+7ю3686100 0.1 1015379
03:00+7ю3686100 0.1 1014407
06:00+6ююз3792100 0.1 1014346
09:00+7ююз4580100 0.2 1013453
12:00+8ююз4676100 0.2 1012772
15:00+9ююз6867100 0.5 10101306
18:00+8ююз6972100 0.1 1010973
21:00+7ю61085100 0.8 1010657